GW2818 Weather Reports


time (UTC)temp
C
wind
direction
speed
KPH
gust
KPH
rain 1hr
cm
rain 24hr
cm
rain mn
cm
humidity
%
barometer
mb
20260510071544 11 0 0.0 0.0 0.03 1.98 0.91 95 1009.6
20260510070040 11 0 0.0 1.6 0.03 1.98 0.91 95 1010.0
20260510064540 11 0 0.0 0.0 0.00 1.96 0.89 95 1010.8
20260510063037 11 0 0.0 0.0 0.00 1.96 0.89 95 1010.4
20260510061542 11 0 0.0 0.0 0.43 1.96 0.89 95 1010.3
20260510060046 11 0 0.0 1.6 0.58 1.96 0.89 95 1010.5
20260510054538 11 0 0.0 1.6 0.69 1.96 0.89 95 1010.2
20260510053035 12 0 0.0 0.0 0.84 1.93 0.86 95 1009.8
20260510051541 11 0 0.0 0.0 0.43 1.47 0.43 95 1011.2
20260510050043 11 0 0.0 0.0 0.30 1.37 0.30 95 1011.0
20260510044542 11 0 0.0 0.0 0.20 1.27 0.20 95 1010.9
20260510043046 11 0 0.0 0.0 0.03 1.09 0.03 95 1010.6
20260510041552 11 0 0.0 0.0 0.00 1.07 0.00 95 1010.1
20260510040042 11 0 0.0 0.0 0.03 1.07 0.00 95 1009.8
20260510034535 11 0 0.0 0.0 0.18 1.09 1.07 95 1009.7
20260510033043 11 0 0.0 0.0 0.30 1.09 1.07 95 1009.9
20260510031541 12 0 0.0 1.6 0.46 1.09 1.07 95 1009.9
20260510030041 12 0 0.0 0.0 0.79 1.07 1.04 94 1010.1
20260510024551 12 0 0.0 3.2 0.66 0.97 0.86 93 1010.8
20260510023037 12 0 0.0 3.2 0.56 0.86 0.76 93 1011.2
20260510021542 12 278 0.0 1.6 0.38 0.69 0.58 90 1011.0
20260510020048 13 23 0.0 11.3 0.05 0.36 0.25 85 1010.8
20260510014542 15 336 1.6 14.5 0.00 0.36 0.20 75 1010.1
20260510013041 15 0 0.0 3.2 0.00 0.36 0.20 75 1008.3
20260510011540 15 0 0.0 1.6 0.00 0.36 0.20 75 1008.0
20260510010056 15 0 0.0 3.2 0.00 0.36 0.20 74 1007.9
20260510004536 15 0 0.0 4.8 0.00 0.36 0.20 73 1007.9
20260510003042 15 0 0.0 3.2 0.00 0.36 0.20 73 1007.9
20260510001539 16 0 0.0 1.6 0.00 0.36 0.20 71 1007.7
20260510000043 16 0 0.0 3.2 0.00 0.36 0.20 70 1007.5
20260509234556 16 91 0.0 3.2 0.00 0.36 0.20 71 1007.4
20260509233036 17 155 0.0 4.8 0.00 0.36 0.20 70 1007.3
20260509231536 17 99 0.0 1.6 0.00 0.36 0.20 68 1007.2
20260509230042 17 95 1.6 8.0 0.00 0.36 0.20 67 1007.2
20260509224540 18 113 1.6 8.0 0.00 0.36 0.20 66 1007.0
20260509223041 18 116 0.0 8.0 0.00 0.36 0.20 66 1006.7
20260509221601 18 238 0.0 4.8 0.00 0.36 0.20 68 1006.9
20260509220041 18 137 0.0 8.0 0.00 0.36 0.20 66 1007.2
20260509214540 19 295 1.6 8.0 0.00 0.36 0.20 63 1007.4
20260509213043 20 89 0.0 6.4 0.00 0.36 0.20 66 1007.3
20260509211542 19 135 0.0 6.4 0.00 0.36 0.20 68 1007.5
20260509210040 18 0 1.6 4.8 0.00 0.36 0.20 66 1007.6
20260509204538 18 77 1.6 8.0 0.00 0.36 0.20 69 1007.8
20260509203041 18 163 0.0 6.4 0.00 0.36 0.20 69 1008.0
20260509201535 18 0 0.0 16.1 0.00 0.36 0.20 71 1008.1
20260509200044 18 78 1.6 8.0 0.00 0.36 0.20 69 1008.3
20260509194538 18 150 1.6 6.4 0.00 0.41 0.20 71 1008.5
20260509193045 18 99 1.6 9.7 0.00 0.41 0.20 73 1008.6
20260509191552 18 27 3.2 8.0 0.00 0.41 0.20 70 1008.7
20260509190048 17 82 1.6 8.0 0.00 0.41 0.20 73 1008.7
20260509184541 17 219 0.0 8.0 0.00 0.41 0.20 74 1009.0
20260509183042 17 72 1.6 8.0 0.00 0.41 0.20 73 1009.1
20260509181539 16 233 0.0 8.0 0.00 0.41 0.20 80 1009.2
20260509180036 16 116 3.2 9.7 0.00 0.41 0.20 79 1009.2
20260509174537 15 0 0.0 8.0 0.00 0.41 0.20 80 1009.2
20260509173052 16 0 1.6 4.8 0.00 0.41 0.20 80 1009.2
20260509171548 15 110 0.0 4.8 0.00 0.41 0.20 83 1009.2
20260509170042 16 246 0.0 4.8 0.00 0.41 0.20 83 1009.0
20260509164546 15 0 0.0 9.7 0.00 0.41 0.20 86 1008.9
20260509163049 15 231 0.0 8.0 0.00 0.41 0.20 89 1008.8
20260509161540 15 0 0.0 8.0 0.00 0.41 0.20 89 1008.9
20260509160039 14 0 0.0 11.3 0.00 0.41 0.20 90 1009.0
20260509154537 13 155 0.0 9.7 0.00 0.41 0.20 95 1008.8
20260509153038 12 76 0.0 3.2 0.00 0.41 0.20 94 1008.8
20260509151542 11 0 0.0 3.2 0.00 0.41 0.20 95 1008.9
20260509150042 11 0 0.0 3.2 0.03 0.41 0.20 94 1008.9
20260509144546 11 0 0.0 1.6 0.03 0.41 0.20 94 1009.0
20260509143038 11 0 0.0 4.8 0.03 0.41 0.20 94 1009.0
20260509141544 11 0 0.0 1.6 0.03 0.41 0.20 94 1009.1
20260509140046 11 0 0.0 0.0 0.00 0.38 0.18 94 1009.1
20260509134550 10 0 0.0 1.6 0.00 0.38 0.18 94 1009.2
20260509133038 10 0 0.0 0.0 0.03 0.38 0.18 94 1009.2
20260509131556 10 0 0.0 4.8 0.05 0.38 0.18 94 1009.3
20260509130050 10 0 0.0 4.8 0.08 0.38 0.18 94 1009.4
20260509124543 10 0 0.0 6.4 0.08 0.38 0.18 95 1009.4
20260509123045 10 170 0.0 1.6 0.08 0.36 0.15 95 1009.4
20260509121543 10 0 0.0 4.8 0.08 0.33 0.13 95 1009.4
20260509120039 10 0 0.0 1.6 0.08 0.30 0.10 95 1009.5
20260509114537 10 0 0.0 3.2 0.08 0.30 0.10 95 1009.5
20260509113036 10 0 0.0 4.8 0.08 0.28 0.08 95 1009.5
20260509111535 9 0 0.0 1.6 0.05 0.25 0.05 95 1009.3
20260509110045 9 0 0.0 0.0 0.03 0.23 0.03 95 1009.2
20260509104549 9 0 0.0 0.0 0.03 0.23 0.03 95 1009.1
20260509103039 9 0 0.0 0.0 0.00 0.20 0.00 95 1009.1
20260509101538 8 0 0.0 1.6 0.00 0.20 0.00 95 1009.1
20260509100039 8 0 0.0 0.0 0.00 0.20 0.00 95 1009.2
20260509094536 8 0 0.0 0.0 0.00 0.20 0.00 95 1009.4
20260509093042 8 0 0.0 0.0 0.00 0.20 0.00 95 1009.4
20260509091538 8 0 0.0 0.0 0.00 0.20 0.00 95 1009.6
20260509090045 8 0 0.0 0.0 0.00 0.20 0.00 95 1009.6
20260509084538 8 0 0.0 0.0 0.00 0.20 0.00 95 1009.7
20260509083046 8 0 0.0 0.0 0.00 0.20 0.00 95 1009.7
20260509081544 8 0 0.0 0.0 0.00 0.20 0.00 95 1009.7
20260509080037 8 0 0.0 0.0 0.00 0.20 0.00 95 1009.8
20260509074536 8 0 0.0 0.0 0.00 0.20 0.00 95 1009.6
20260509073043 8 0 0.0 0.0 0.00 0.20 0.00 95 1009.7